Location: *
(44.3925°N, 5.4708°E)
Time: 16:33:47
(UTC+00:00)

Meteor 1-24 Rocket - Pass Details

Date: 18 September 2019
Orbit: 791 x 926 km, 81.2° (Epoch: 14 October)

Event Time Altitude Azimuth Distance (km) Brightness Sun altitude
Rises 19:30:12 0° 355° (N) 3,448 7.3 -19.3°
Reaches altitude 10° 19:32:44 10° 2° (N) 2,528 6.4 -19.7°
Maximum altitude 19:38:14 44° 74° (ENE) 1,215 4.2 -20.6°
Enters shadow 19:39:23 40° 104° (ESE) 1,307 4.2 -20.8°
